SCOUT B DEB, 37862

Orbit data source: Space-Track

SCOUT B DEB, 37862 is space debris in LEO originally from a launch on Tue, 10 Aug 1965 UTC launched from the Wallops Island (WLPIS). Debris objects in space refer to the collection of defunct objects orbiting the Earth. Examples of debris include non-operational satellites, rocket bodies, and fragments generated from explosions, collisions, or faulty payload assembly.

Loading next visibility...
Identifier
37862, 1965-063AE
Orbit
LEO
Country
Flag of USUS
Related business
Manufacturer
Unknown
Mission
Spacecraft
Bus & Motor
Unknown
Mass
Unknown
Launch date (UTC)
1965-08-10 (61 years ago)
Launch vehicle
Unknown
Launch site
Wallops Island (WLPIS)
Object type
Payload
Rocket body
Debris
Shape & HBR
Unknown shape, 0.1 m
Radar Cross Section
Small (<0.1 m²)

Expand to show TLE details & history
Last TLE update: 12 hours ago

TLE from 12 hours ago
0 SCOUT B DEB
1 37862U 65063AE  26107.26999206  .00005056  00000-0  98129-2 0  9992
2 37862  69.0753 204.6772 0766709 352.7131   6.3237 12.57948044742809
Epoch: 2026-04-17T06:28Z
TLE epoch observation values (Epoch: 2026-04-17T06:28:47.313Z)
Latitude
-0.00004°
Longitude
-97.92555°
Altitude
838.982 km
Speed
7.711 km/s
True Right ascension
13h 38m 42s
True Declination
0° 00' 00"
Sunlit
Object was in full shadow at epoch
Visualization orbit readout
Latitude
Unknown
Longitude
Unknown
Altitude
Unknown
Speed
Unknown
Apparent Right ascension
Unknown
Apparent Declination
Unknown
Sunlit
N/A
Visualization observer readout
Local Sidereal Time
01:41:01
Azimuth
Unknown
Elevation
Unknown
Doppler factor
Unknown
Orbital elements
Apogee altitude
2,028.306 km
Perigee altitude
831.042 km
Semi-major axis
7,807.811 km
Eccentricity
0.07667
Inclination
69.0753°
RAAN
204.6772°
Arg. of periapsis
352.7131°
True anomaly
7.39276°
Mean anomaly
6.3237°
Eccentric anomaly
6.84745°
Mean motion
3.14593 °/min
Orbital period
114.43 mins
BSTAR
0.0098129
Loading maneuver chart data...
Computing Atmospheric mass density...
Loading historical data...
Loading historical data...
Loading historical data...
Loading historical data...
Loading historical data...
Loading historical data...
Loading historical data...

Documentation

Showing up to 5 results
|